H1 CPF 2 NER 2020 12 18 9 353 01 glonass141 H2 1908801 9141 44850 2020 12 18 0 0 0 2020 12 21 23 45 0 900 1 1 0 0 0 1 H9 10 0 59201 0.00000 0 15413056.780 20302278.758 -1075723.101 10 0 59201 900.00000 0 15500811.988 20153550.442 2140809.034 10 0 59201 1800.00000 0 15314804.360 19706271.415 5315790.468 10 0 59201 2700.00000 0 14821650.099 19005497.284 8387619.428 10 0 59201 3600.00000 0 13999020.631 18103771.022 11296728.425 10 0 59201 4500.00000 0 12836804.659 17058792.985 13986734.963 10 0 59201 5400.00000 0 11337766.986 15930895.099 16405527.942 10 0 59201 6300.00000 0 9517676.071 14780425.564 18506269.292 10 0 59201 7200.00000 0 7404894.706 13665153.828 20248292.117 10 0 59201 8100.00000 0 5039450.336 12637804.248 21597879.011 10 0 59201 9000.00000 0 2471622.952 11743821.081 22528906.521 10 0 59201 9900.00000 0 -239891.664 11019457.613 23023344.254 10 0 59201 10800.00000 0 -3030168.374 10490268.511 23071599.851 10 0 59201 11700.00000 0 -5830499.570 10170067.729 22672703.739 10 0 59201 12600.00000 0 -8571002.553 10060395.031 21834330.298 10 0 59201 13500.00000 0 -11183280.974 10150513.178 20572654.908 10 0 59201 14400.00000 0 -13603031.485 10417935.971 18912049.069 10 0 59201 15300.00000 0 -15772488.679 10829465.381 16884618.660 10 0 59201 16200.00000 0 -17642607.811 11342694.781 14529593.178 10 0 59201 17100.00000 0 -19174895.213 11907915.873 11892576.512 10 0 59201 18000.00000 0 -20342810.425 12470349.720 9024672.679 10 0 59201 18900.00000 0 -21132681.614 12972608.432 5981502.370 10 0 59201 19800.00000 0 -21544095.834 13357283.910 2822128.607 10 0 59201 20700.00000 0 -21589747.462 13569554.211 -392087.988 10 0 59201 21600.00000 0 -21294750.903 13559696.873 -3598682.191 10 0 59201 22500.00000 0 -20695446.249 13285401.967 -6735301.979 10 0 59201 23400.00000 0 -19837748.083 12713785.803 -9740926.800 10 0 59201 24300.00000 0 -18775107.182 11823018.587 -12557061.852 10 0 59201 25200.00000 0 -17566171.374 10603495.519 -15128884.287 10 0 59201 26100.00000 0 -16272244.691 9058500.165 -17406318.082 10 0 59201 27000.00000 0 -14954652.605 7204330.388 -19345015.929 10 0 59201 27900.00000 0 -13672125.002 5069879.942 -20907228.471 10 0 59201 28800.00000 0 -12478307.761 2695691.942 -22062543.498 10 0 59201 29700.00000 0 -11419508.186 132522.757 -22788480.580 10 0 59201 30600.00000 0 -10532769.352 -2560524.552 -23070929.550 10 0 59201 31500.00000 0 -9844354.463 -5318219.767 -22904424.381 10 0 59201 32400.00000 0 -9368704.655 -8071685.979 -22292247.372 10 0 59201 33300.00000 0 -9107913.596 -10751037.873 -21246361.827 10 0 59201 34200.00000 0 -9051740.287 -13288068.077 -19787174.777 10 0 59201 35100.00000 0 -9178158.619 -15618869.983 -17943134.615 10 0 59201 36000.00000 0 -9454419.569 -17686288.042 -15750171.678 10 0 59201 36900.00000 0 -9838580.194 -19442093.779 -13250992.926 10 0 59201 37800.00000 0 -10281433.891 -20848797.370 -10494244.763 10 0 59201 38700.00000 0 -10728759.410 -21881019.977 -7533560.571 10 0 59201 39600.00000 0 -11123792.724 -22526370.466 -4426512.012 10 0 59201 40500.00000 0 -11409816.445 -22785791.091 -1233484.960 10 0 59201 41400.00000 0 -11532756.731 -22673359.121 1983497.624 10 0 59201 42300.00000 0 -11443677.367 -22215554.168 5161982.372 10 0 59201 43200.00000 0 -11101065.335 -21450023.547 8240297.996 10 0 59201 44100.00000 0 -10472811.158 -20423898.807 11158749.809 10 0 59201 45000.00000 0 -9537800.355 -19191735.319 13860773.031 10 0 59201 45900.00000 0 -8287048.912 -17813162.202 16294022.824 10 0 59201 46800.00000 0 -6724334.801 -16350341.617 18411380.505 10 0 59201 47700.00000 0 -4866298.795 -14865344.001 20171857.152 10 0 59201 48600.00000 0 -2742009.806 -13417548.792 21541378.128 10 0 59201 49500.00000 0 -392012.086 -12061178.760 22493434.398 10 0 59201 50400.00000 0 2133106.978 -10843070.098 23009588.995 10 0 59201 51300.00000 0 4774570.193 -9800770.456 23079829.737 10 0 59201 52200.00000 0 7467609.587 -8961043.290 22702761.964 10 0 59201 53100.00000 0 10143921.335 -8338840.136 21885637.797 10 0 59201 54000.00000 0 12734276.486 -7936783.054 20644221.230 10 0 59201 54900.00000 0 15171180.715 -7745178.473 19002491.122 10 0 59201 55800.00000 0 17391473.984 -7742561.768 16992187.011 10 0 59201 56700.00000 0 19338763.234 -7896749.894 14652205.432 10 0 59201 57600.00000 0 20965587.610 -8166358.230 12027857.207 10 0 59201 58500.00000 0 22235226.316 -8502718.291 9169998.933 10 0 59201 59400.00000 0 23123073.669 -8852115.945 6134054.480 10 0 59201 60300.00000 0 23617523.625 -9158255.919 2978944.620 10 0 59201 61200.00000 0 23720326.187 -9364848.489 -234054.752 10 0 59201 62100.00000 0 23446400.304 -9418208.598 -3442503.800 10 0 59201 63000.00000 0 22823110.575 -9269756.652 -6584015.893 10 0 59201 63900.00000 0 21889037.859 -8878314.093 -9597476.427 10 0 59201 64800.00000 0 20692295.357 -8212095.155 -12424238.867 10 0 59201 65700.00000 0 19288461.149 -7250308.935 -15009273.889 10 0 59201 66600.00000 0 17738214.511 -5984302.360 -17302248.312 10 0 59201 67500.00000 0 16104775.977 -4418194.016 -19258512.072 10 0 59201 68400.00000 0 14451259.372 -2568970.436 -20839973.444 10 0 59201 69300.00000 0 12838047.712 -466039.285 -22015845.011 10 0 59201 70200.00000 0 11320303.692 1849743.129 -22763245.698 10 0 59201 71100.00000 0 9945719.511 4327530.393 -23067647.122 10 0 59201 72000.00000 0 8752600.582 6908370.314 -22923155.686 10 0 59201 72900.00000 0 7768363.195 9527436.928 -22332625.117 10 0 59201 73800.00000 0 7008508.649 12116517.483 -21307597.515 10 0 59201 74700.00000 0 6476116.082 14606650.825 -19868074.290 10 0 59201 75600.00000 0 6161874.207 16930807.416 -18042121.696 10 0 59201 76500.00000 0 6044649.371 19026499.407 -15865318.834 10 0 59201 77400.00000 0 6092564.694 20838212.002 -13380059.158 10 0 59201 78300.00000 0 6264543.422 22319555.030 -10634719.364 10 0 59201 79200.00000 0 6512250.031 23435045.295 -7682712.135 10 0 59201 80100.00000 0 6782345.900 24161445.863 -4581441.696 10 0 59201 81000.00000 0 7018963.136 24488607.131 -1391182.927 10 0 59201 81900.00000 0 7166290.997 24419775.570 1826093.661 10 0 59201 82800.00000 0 7171164.903 23971358.390 5007927.689 10 0 59201 83700.00000 0 6985548.001 23172155.314 8092581.616 10 0 59201 84600.00000 0 6568800.125 22062090.931 11020236.670 10 0 59201 85500.00000 0 5889638.184 20690501.892 13734148.653 10 0 59202 0.00000 0 4927705.249 19114051.618 16181741.526 10 0 59202 900.00000 0 3674681.688 17394360.360 18315618.358 10 0 59202 1800.00000 0 2134892.801 15595449.955 20094470.102 10 0 59202 2700.00000 0 325384.849 13781110.125 21483866.484 10 0 59202 3600.00000 0 -1724532.185 12012295.221 22456914.125 10 0 59202 4500.00000 0 -3974258.319 10344659.668 22994770.342 10 0 59202 5400.00000 0 -6373353.842 8826333.547 23087003.584 10 0 59202 6300.00000 0 -8863407.413 7496029.917 22731794.118 10 0 59202 7200.00000 0 -11380245.835 6381561.657 21935971.338 10 0 59202 8100.00000 0 -13856395.416 5498828.685 20714886.896 10 0 59202 9000.00000 0 -16223694.318 4851317.009 19092125.550 10 0 59202 9900.00000 0 -18415948.693 4430130.086 17099058.552 10 0 59202 10800.00000 0 -20371523.397 4214550.921 14774247.105 10 0 59202 11700.00000 0 -22035760.216 4173111.324 12162706.215 10 0 59202 12600.00000 0 -23363123.145 4265123.615 9315042.053 10 0 59202 13500.00000 0 -24318981.204 4442610.502 6286478.472 10 0 59202 14400.00000 0 -24880953.878 4652551.926 3135790.733 10 0 59202 15300.00000 0 -25039762.195 4839354.002 -75833.276 10 0 59202 16200.00000 0 -24799549.032 4947435.350 -3285982.311 10 0 59202 17100.00000 0 -24177654.386 4923820.800 -6432238.246 10 0 59202 18000.00000 0 -23203854.418 4720631.699 -9453395.401 10 0 59202 18900.00000 0 -21919095.738 4297366.158 -12290658.313 10 0 59202 19800.00000 0 -20373777.925 3622871.209 -14888793.767 10 0 59202 20700.00000 0 -18625656.521 2676921.872 -17197213.717 10 0 59202 21600.00000 0 -16737454.860 1451338.671 -19170967.265 10 0 59202 22500.00000 0 -14774285.412 -49405.234 -20771621.821 10 0 59202 23400.00000 0 -12800989.347 -1808114.401 -21968015.776 10 0 59202 24300.00000 0 -10879506.308 -3795343.329 -22736867.913 10 0 59202 25200.00000 0 -9066384.861 -5970391.916 -23063231.645 10 0 59202 26100.00000 0 -7410537.993 -8282783.372 -22940785.317 10 0 59202 27000.00000 0 -5951337.432 -10674163.442 -22371953.167 10 0 59202 27900.00000 0 -4717125.973 -13080542.094 -21367854.783 10 0 59202 28800.00000 0 -3724209.383 -15434784.231 -19948084.307 10 0 59202 29700.00000 0 -2976368.924 -17669245.637 -18140323.929 10 0 59202 30600.00000 0 -2464913.584 -19718444.180 -15979799.372 10 0 59202 31500.00000 0 -2169268.302 -21521654.693 -13508588.288 10 0 59202 32400.00000 0 -2058071.784 -23025319.252 -10774795.267 10 0 59202 33300.00000 0 -2090736.023 -24185172.286 -7831609.865 10 0 59202 34200.00000 0 -2219400.205 -24967991.901 -4736266.431 10 0 59202 35100.00000 0 -2391195.075 -25352904.670 -1548926.449 10 0 59202 36000.00000 0 -2550720.835 -25332189.948 1668494.386 10 0 59202 36900.00000 0 -2642632.876 -24911550.876 4853531.005 10 0 59202 37800.00000 0 -2614225.256 -24109841.730 7944381.898 10 0 59202 38700.00000 0 -2417902.214 -22958264.082 10881106.435 10 0 59202 39600.00000 0 -2013433.105 -21499066.425 13606783.183 10 0 59202 40500.00000 0 -1369895.412 -19783802.535 16068607.062 10 0 59202 41400.00000 0 -467223.912 -17871221.965 18218904.635 10 0 59202 42300.00000 0 702699.272 -15824881.091 20016048.530 10 0 59202 43200.00000 0 2135459.763 -13710574.295 21425254.315 10 0 59202 44100.00000 0 3814056.148 -11593691.852 22419245.441 10 0 59202 45000.00000 0 5709378.304 -9536613.822 22978774.369 10 0 59202 45900.00000 0 7781199.934 -7596247.303 23092990.710 10 0 59202 46800.00000 0 9979645.206 -5821808.273 22759649.868 10 0 59202 47700.00000 0 12247069.921 -4252939.056 21985158.428 10 0 59202 48600.00000 0 14520280.550 -2918238.558 20784455.320 10 0 59202 49500.00000 0 16733000.493 -1834265.405 19180730.562 10 0 59202 50400.00000 0 18818482.369 -1005054.831 17204986.202 10 0 59202 51300.00000 0 20712158.850 -422168.883 14895446.913 10 0 59202 52200.00000 0 22354222.499 -65277.550 12296830.387 10 0 59202 53100.00000 0 23692027.383 96753.623 9459490.550 10 0 59202 54000.00000 0 24682212.204 104315.156 6438449.092 10 0 59202 54900.00000 0 25292455.767 5109.666 3292333.278 10 0 59202 55800.00000 0 25502790.497 -148105.657 82240.240 10 0 59202 56700.00000 0 25306418.017 -299994.466 -3129450.365 10 0 59202 57600.00000 0 24709991.513 -395229.394 -6280292.016 10 0 59202 58500.00000 0 23733352.027 -381082.550 -9308991.070 10 0 59202 59400.00000 0 22408728.927 -209907.644 -12156606.151 10 0 59202 60300.00000 0 20779437.507 158592.691 -14767702.972 10 0 59202 61200.00000 0 18898128.100 755411.779 -17091441.194 10 0 59202 62100.00000 0 16824660.135 1600680.218 -19082571.387 10 0 59202 63000.00000 0 14623690.412 2702571.097 -20702322.102 10 0 59202 63900.00000 0 12362077.017 4056716.730 -21919159.263 10 0 59202 64800.00000 0 10106207.867 5646162.904 -22709402.948 10 0 59202 65700.00000 0 7919365.902 7441863.772 -23057689.494 10 0 59202 66600.00000 0 5859241.235 9403697.552 -22957270.000 10 0 59202 67500.00000 0 3975694.084 11481961.246 -22410139.659 10 0 59202 68400.00000 0 2308861.481 13619282.308 -21426995.612 10 0 59202 69300.00000 0 887686.236 15752867.538 -20027024.386 10 0 59202 70200.00000 0 -271071.465 17816995.286 -18237523.338 10 0 59202 71100.00000 0 -1163299.812 19745646.802 -16093363.623 10 0 59202 72000.00000 0 -1797460.523 21475166.496 -13636305.480 10 0 59202 72900.00000 0 -2193978.307 22946839.793 -10914179.397 10 0 59202 73800.00000 0 -2384122.193 24109280.609 -7979949.420 10 0 59202 74700.00000 0 -2408427.556 24920528.495 -4890677.322 10 0 59202 75600.00000 0 -2314727.155 25349767.801 -1706408.225 10 0 59202 76500.00000 0 -2155875.784 25378597.156 1511000.162 10 0 59202 77400.00000 0 -1987265.914 25001796.594 4699081.352 10 0 59202 78300.00000 0 -1864240.333 24227560.822 7795973.183 10 0 59202 79200.00000 0 -1839511.789 23077189.639 10741616.429 10 0 59202 80100.00000 0 -1960699.069 21584249.227 13478915.544 10 0 59202 81000.00000 0 -2268083.683 19793240.087 15954839.313 10 0 59202 81900.00000 0 -2792681.796 17757827.753 18121440.600 10 0 59202 82800.00000 0 -3554712.524 15538710.427 19936776.125 10 0 59202 83700.00000 0 -4562527.054 13201212.313 21365709.447 10 0 59202 84600.00000 0 -5812043.713 10812702.389 22380582.674 10 0 59202 85500.00000 0 -7286713.078 8439945.301 22961744.861 10 0 59203 0.00000 0 -8958015.266 6146493.348 23097927.820 10 0 59203 900.00000 0 -10786470.029 3990226.712 22786462.643 10 0 59203 1800.00000 0 -12723117.872 2021142.455 22033333.167 10 0 59203 2700.00000 0 -14711413.257 279483.668 20853065.096 10 0 59203 3600.00000 0 -16689451.420 -1205715.959 19268452.636 10 0 59203 4500.00000 0 -18592438.078 -2417611.419 17310127.007 10 0 59203 5400.00000 0 -20355300.151 -3352010.078 15015974.201 10 0 59203 6300.00000 0 -21915329.641 -4017300.788 12430411.988 10 0 59203 7200.00000 0 -23214750.743 -4433851.645 9603539.053 10 0 59203 8100.00000 0 -24203102.999 -4632901.884 6590171.654 10 0 59203 9000.00000 0 -24839340.401 -4654994.542 3448785.612 10 0 59203 9900.00000 0 -25093557.686 -4548016.011 240383.758 10 0 59203 10800.00000 0 -24948270.366 -4364925.454 -2972689.372 10 0 59203 11700.00000 0 -24399193.520 -4161270.458 -6127962.344 10 0 59203 12600.00000 0 -23455485.334 -3992594.644 -9164056.927 10 0 59203 13500.00000 0 -22139443.996 -3911847.895 -12021889.034 10 0 59203 14400.00000 0 -20485669.628 -3966909.959 -14645826.294 10 0 59203 15300.00000 0 -18539725.761 -4198333.521 -16984778.758 10 0 59203 16200.00000 0 -16356356.028 -4637403.614 -18993200.762 10 0 59203 17100.00000 0 -13997330.632 -5304596.830 -20631983.823 10 0 59203 18000.00000 0 -11529012.824 -6208506.704 -21869222.687 10 0 59203 18900.00000 0 -9019747.316 -7345281.866 -22680839.423 10 0 59203 19800.00000 0 -6537179.881 -8698601.749 -23051053.398 10 0 59203 20700.00000 0 -4145620.245 -10240191.740 -22972688.001 10 0 59203 21600.00000 0 -1903558.170 -11930856.885 -22447308.412 10 0 59203 22500.00000 0 138563.952 -13721991.272 -21485187.916 10 0 59203 23400.00000 0 1940229.611 -15557500.059 -20105103.668 10 0 59203 24300.00000 0 3472300.334 -17376053.714 -18333966.142 10 0 59203 25200.00000 0 4717982.043 -19113579.981 -16206289.667 10 0 59203 26100.00000 0 5673266.673 -20705888.936 -13763514.640 10 0 59203 27000.00000 0 6346832.313 -22091320.921 -11053194.904 10 0 59203 27900.00000 0 6759407.952 -23213306.122 -8128066.394 10 0 59203 28800.00000 0 6942631.460 -24022728.221 -5045015.661 10 0 59203 29700.00000 0 6937450.772 -24479992.935 -1863968.828 10 0 59203 30600.00000 0 6792137.449 -24556714.664 1353276.990 10 0 59203 31500.00000 0 6559997.939 -24236950.719 4544256.439 10 0 59203 32400.00000 0 6296880.438 -23517931.707 7647049.160 10 0 59203 33300.00000 0 6058583.556 -22410257.896 10601479.674 10 0 59203 34200.00000 0 5898276.797 -20937553.868 13350280.527 10 0 59203 35100.00000 0 5864041.996 -19135596.365 15840196.391 10 0 59203 36000.00000 0 5996639.435 -17050952.105 18023008.239 10 0 59203 36900.00000 0 6327592.590 -14739182.578 19856458.422 10 0 59203 37800.00000 0 6877671.903 -12262690.506 21305059.744 10 0 59203 38700.00000 0 7655841.207 -9688297.054 22340773.896 10 0 59203 39600.00000 0 8658711.043 -7084649.818 22943547.127 10 0 59203 40500.00000 0 9870522.117 -4519568.110 23101693.705 10 0 59203 41400.00000 0 11263660.302 -2057434.403 22812120.394 10 0 59203 42300.00000 0 12799682.554 243261.186 22080387.925 10 0 59203 43200.00000 0 14430812.166 2332122.919 20920608.203 10 0 59203 44100.00000 0 16101842.316 4168707.925 19355178.792 10 0 59203 45000.00000 0 17752369.806 5723964.954 17414359.035 10 0 59203 45900.00000 0 19319267.043 6981194.514 15135694.970 10 0 59203 46800.00000 0 20739290.009 7936491.011 12563302.945 10 0 59203 47700.00000 0 21951713.796 8598648.819 9747024.671 10 0 59203 48600.00000 0 22900885.620 8988536.484 6741468.990 10 0 59203 49500.00000 0 23538588.094 9137965.493 3604958.056 10 0 59203 50400.00000 0 23826112.908 9088101.270 398397.952 10 0 59203 51300.00000 0 23735956.773 8887483.570 -2815904.516 10 0 59203 52200.00000 0 23253067.063 8589740.166 -5975455.714 10 0 59203 53100.00000 0 22375583.305 8251090.974 -9018795.540 10 0 59203 54000.00000 0 21115041.885 7927748.921 -11886699.842 10 0 59203 54900.00000 0 19496033.986 7673328.491 -14523340.655 10 0 59203 55800.00000 0 17555330.025 7536372.683 -16877380.718 10 0 59203 56700.00000 0 15340506.444 7558104.227 -18902980.218 10 0 59203 57600.00000 0 12908131.785 7770497.334 -20560695.513 10 0 59203 58500.00000 0 10321587.742 8194752.595 -21818251.838 10 0 59203 59400.00000 0 7648616.134 8840240.500 -22651174.736 10 0 59203 60300.00000 0 4958694.214 9703959.026 -23043267.874 10 0 59203 61200.00000 0 2320347.897 10770528.884 -22986927.967 10 0 59203 62100.00000 0 -201485.147 12012727.199 -22483290.925 10 0 59203 63000.00000 0 -2547932.915 13392537.573 -21542206.576 10 0 59203 63900.00000 0 -4668404.127 14862672.559 -20182042.714 10 0 59203 64800.00000 0 -6522449.343 16368504.657 -18429322.526 10 0 59203 65700.00000 0 -8081191.550 17850324.616 -16318202.674 10 0 59203 66600.00000 0 -9328267.722 19245831.931 -13889802.478 10 0 59203 67500.00000 0 -10260243.617 20492752.654 -11191397.506 10 0 59203 68400.00000 0 -10886486.228 21531474.179 -8275493.603 10 0 59203 69300.00000 0 -11228501.136 22307585.942 -5198799.834 10 0 59203 70200.00000 0 -11318764.598 22774219.009 -2021120.787 10 0 59203 71100.00000 0 -11199101.422 22894086.033 1195809.747 10 0 59203 72000.00000 0 -10918678.675 22641135.827 4389530.449 10 0 59203 72900.00000 0 -10531701.323 22001753.148 7498065.774 10 0 59203 73800.00000 0 -10094908.174 20975453.504 10461127.069 10 0 59203 74700.00000 0 -9664974.545 19575044.136 13221278.059 10 0 59203 75600.00000 0 -9295931.648 17826244.676 15725042.341 10 0 59203 76500.00000 0 -9036711.568 15766783.472 17923931.933 10 0 59203 77400.00000 0 -8928921.055 13445007.347 19775377.604 10 0 59203 78300.00000 0 -9004937.471 10918062.501 21243543.969 10 0 59203 79200.00000 0 -9286406.545 8249721.679 22300014.603 10 0 59203 80100.00000 0 -9783204.697 5507947.168 22924334.912 10 0 59203 81000.00000 0 -10492909.385 2762289.654 23104403.196 10 0 59203 81900.00000 0 -11400799.857 81229.484 22836702.994 10 0 59203 82800.00000 0 -12480388.796 -2470430.819 22126372.547 10 0 59203 83700.00000 0 -13694463.474 -4834016.188 20987110.003 10 0 59203 84600.00000 0 -14996593.950 -6959170.631 19440915.759 10 0 59203 85500.00000 0 -16333046.452 -8805701.010 17517676.175 10 0 59204 0.00000 0 -17645023.109 -10344997.404 15254595.730 10 0 59204 900.00000 0 -18871135.338 -11560971.559 12695487.068 10 0 59204 1800.00000 0 -19950008.207 -12450475.202 9889932.371 10 0 59204 2700.00000 0 -20822906.470 -13023180.007 6892330.088 10 0 59204 3600.00000 0 -21436272.725 -13300925.709 3760845.460 10 0 59204 4500.00000 0 -21744069.866 -13316562.751 556284.398 10 0 59204 5400.00000 0 -21709828.721 -13112338.808 -2659087.574 10 0 59204 6300.00000 0 -21308313.292 -12737897.276 -5822758.210 10 0 59204 7200.00000 0 -20526732.001 -12247972.586 -8873189.119 10 0 59204 8100.00000 0 -19365442.323 -11699880.343 -11751019.590 10 0 59204 9000.00000 0 -17838117.509 -11150909.146 -14400229.425 10 0 59204 9900.00000 0 -15971366.970 -10655725.283 -16769237.187 10 0 59204 10800.00000 0 -13803824.965 -10263901.099 -18811911.701 10 0 59204 11700.00000 0 -11384744.831 -10017672.474 -20488476.531 10 0 59204 12600.00000 0 -8772156.957 -9950021.174 -21766289.234 10 0 59204 13500.00000 0 -6030667.078 -10083163.848 -22620480.069 10 0 59204 14400.00000 0 -3228986.540 -10427512.155 -23034437.621 10 0 59204 15300.00000 0 -437297.480 -10981148.361 -23000131.946 10 0 59204 16200.00000 0 2275437.425 -11729838.840 -22518269.144 10 0 59204 17100.00000 0 4844108.782 -12647585.107 -21598274.568 10 0 59204 18000.00000 0 7209928.468 -13697689.140 -20258105.216 10 0 59204 18900.00000 0 9322629.508 -14834288.047 -18523895.212 10 0 59204 19800.00000 0 11142307.008 -16004293.241 -16429441.487 10 0 59204 20700.00000 0 12640824.283 -17149652.110 -14015539.947 10 0 59204 21600.00000 0 13802726.870 -18209836.598 -11329185.327 10 0 59204 22500.00000 0 14625627.764 -19124453.435 -8422650.613 10 0 59204 23400.00000 0 15120049.461 -19835865.679 -5352464.442 10 0 59204 24300.00000 0 15308731.385 -20291714.729 -2178306.804 10 0 59204 25200.00000 0 15225433.692 -20447236.308 1038154.953 10 0 59204 26100.00000 0 14913289.564 -20267272.690 4234466.646 10 0 59204 27000.00000 0 14422777.047 -19727896.394 7348600.546 10 0 59204 27900.00000 0 13809397.207 -18817577.070 10320157.651 10 0 59204 28800.00000 0 13131157.444 -17537842.644 13091535.450 10 0 59204 29700.00000 0 12445966.605 -15903407.057 15609038.755 10 0 59204 30600.00000 0 11809051.834 -13941759.196 17823912.587 10 0 59204 31500.00000 0 11270505.728 -11692230.122 19693277.725 10 0 59204 32400.00000 0 10873066.561 -9204577.111 21180951.809 10 0 59204 33300.00000 0 10650224.258 -6537142.839 22258141.128 10 0 59204 34200.00000 0 10624731.055 -3754665.437 22903990.690 10 0 59204 35100.00000 0 10807578.799 -925829.157 23105982.903 10 0 59204 36000.00000 0 11197485.494 1879344.141 22860177.813 10 0 59204 36900.00000 0 11780912.633 4592155.979 22171290.578 10 0 59204 37800.00000 0 12532612.928 7147836.005 21052604.719 10 0 59204 38700.00000 0 13416686.205 9487984.024 19525722.341 10 0 59204 39600.00000 0 14388100.105 11562749.208 17620155.468 10 0 59204 40500.00000 0 15394612.922 13332657.101 15372765.352 10 0 59204 41400.00000 0 16379018.933 14770009.224 12827059.400 10 0 59204 42300.00000 0 17281622.825 15859797.386 10032358.210 10 0 59204 43200.00000 0 18042839.797 16600094.841 7042847.716 10 0 59204 44100.00000 0 18605812.155 17001908.006 3916533.952 10 0 59204 45000.00000 0 18918931.939 17088494.900 714120.220 10 0 59204 45900.00000 0 18938162.580 16894178.978 -2502171.762 10 0 59204 46800.00000 0 18629060.583 16462708.336 -5669813.686 10 0 59204 47700.00000 0 17968410.511 15845229.668 -8727191.376 10 0 59204 48600.00000 0 16945402.721 15097962.875 -11614809.950 10 0 59204 49500.00000 0 15562302.409 14279675.096 -14276459.199 10 0 59204 50400.00000 0 13834580.135 13449061.608 -16660315.525 10 0 59204 51300.00000 0 11790496.770 12662145.079 -18719958.221 10 0 59204 52200.00000 0 9470158.888 11969803.852 -20415279.681 10 0 59204 53100.00000 0 6924083.202 11415534.459 -21713271.246 10 0 59204 54000.00000 0 4211329.297 11033543.417 -22588669.181 10 0 59204 54900.00000 0 1397278.082 10847249.353 -23024448.115 10 0 59204 55800.00000 0 -1448851.584 10868258.850 -23012152.357 10 0 59204 56700.00000 0 -4256644.892 11095859.325 -22552058.854 10 0 59204 57600.00000 0 -6957181.835 11517050.182 -21653168.812 10 0 59204 58500.00000 0 -9485664.896 12107110.659 -20333028.389 10 0 59204 59400.00000 0 -11783874.617 12830680.065 -18617382.206 10 0 59204 60300.00000 0 -13802351.373 13643304.369 -16539666.629 10 0 59204 61200.00000 0 -15502213.056 14493383.405 -14140352.950 10 0 59204 62100.00000 0 -16856533.908 15324435.959 -11466153.554 10 0 59204 63000.00000 0 -17851228.187 16077586.609 -8569106.790 10 0 59204 63900.00000 0 -18485403.111 16694168.804 -5505558.871 10 0 59204 64800.00000 0 -18771168.046 17118333.809 -2335063.029 10 0 59204 65700.00000 0 -18732909.710 17299554.976 880782.165 10 0 59204 66600.00000 0 -18406065.601 17194921.374 4079532.127 10 0 59204 67500.00000 0 -17835448.914 16771123.841 7199109.553 10 0 59204 68400.00000 0 -17073196.899 16006049.635 10179007.819 10 0 59204 69300.00000 0 -16176430.137 14889918.561 12961460.990 10 0 59204 70200.00000 0 -15204722.041 13425912.770 15492557.957 10 0 59204 71100.00000 0 -14217485.369 11630273.657 17723279.586 10 0 59204 72000.00000 0 -13271385.622 9531861.633 19610439.427 10 0 59204 72900.00000 0 -12417889.580 7171196.680 21117510.747 10 0 59204 73800.00000 0 -11701051.233 4599018.994 22215324.909 10 0 59204 74700.00000 0 -11155627.163 1874428.759 22882628.585 10 0 59204 75600.00000 0 -10805599.574 -937318.918 23106489.990 10 0 59204 76500.00000 0 -10663168.122 -3767273.791 22882546.946 10 0 59204 77400.00000 0 -10728252.335 -6545404.478 22215092.362 10 0 59204 78300.00000 0 -10988525.286 -9203259.943 21116995.452 10 0 59204 79200.00000 0 -11419977.277 -11676569.691 19609459.852 10 0 59204 80100.00000 0 -11987986.395 -13907676.105 17721622.560 10 0 59204 81000.00000 0 -12648851.738 -15847699.095 15490000.465 10 0 59204 81900.00000 0 -13351725.717 -17458343.911 12957793.976 10 0 59204 82800.00000 0 -14040865.050 -18713277.265 10174060.098 10 0 59204 83700.00000 0 -14658106.298 -19599014.602 7192769.828 10 0 59204 84600.00000 0 -15145461.991 -20115281.427 4071767.281 10 0 59204 85500.00000 0 -15447727.821 -20274833.365 871650.202 99